Weather Roundup
Issued by NWS Chicago, IL

Home | Current Version | Previous Version | Graphics & Text | Print | Product List | Glossary On
Versions: 1 2 3 4 5 6 7 8 9 10 11 12 13 14 15 16 17 18 19 20 21 22 23 24 25 26 27 28 29 30 31 32 33 34 35 36 37 38 39 40 41 42 43 44 45 46 47 48 49 50
605
NZUS59 KLOT 090108
HRRLOT

CHICAGO AREA WEATHER ROUNDUP
NATIONAL WEATHER SERVICE CHICAGO/ROMEOVILLE IL
700 PM CST THU DEC 08 2016

NOTE: "FAIR" INDICATES FEW OR NO CLOUDS BELOW 12,000 FEET WITH NO
SIGNIFICANT WEATHER AND/OR OBSTRUCTIONS TO VISIBILITY.

* THESE STATIONS ARE NOT UNDER NWS QUALITY CONTROL. THEY ALSO MAY NOT
  REPORT WEATHER SUCH AS PRECIPITATION OR FOG.

ILZ005-006-012>014-019>023-090200-
NORTHEAST ILLINOIS

CITY           SKY/WX    TMP DP  RH WIND       PRES   REMARKS
OHARE          FLURRIES  23  15  71 NW14      30.38R WCI  11
MIDWAY         FLURRIES  24  14  65 W14       30.39R WCI  12
AURORA         CLOUDY    23  17  78 W14       30.41R WCI  11
LANSING*       CLOUDY    23  17  80 W13G22    30.40R WCI  11
JOLIET*        FLURRIES  24  18  75 W13       30.42S WCI  13
WAUKEGAN       MOCLDY    24  15  68 W14G23    30.33S WCI  12
DUPAGE AIRPORT CLOUDY    23  14  68 W13       30.39R WCI  11
WHEELING       CLOUDY    24  15  68 W12G21    30.38S WCI  13
KANKAKEE*      FLURRIES  23  16  74 W15G22    30.43S WCI  10
MORRIS*        FLURRIES  23  18  80 W15       30.43R WCI  10
LEWIS AIRPORT* MIX PCPN  22  19  88 W12G18    30.41S WCI  11
NORTHERLY ISL    N/A     24  16  71 W13         N/A  WCI  13
$$

WIZ051-052-058>065-066-070>072-090200-
SOUTHEAST WISCONSIN

CITY           SKY/WX    TMP DP  RH WIND       PRES   REMARKS
MILWAUKEE      PTCLDY    25  15  66 W14       30.32R WCI  13
KENOSHA*       CLEAR     23  15  71 W16       30.33R WCI  10
RACINE*        CLEAR     23  15  71 W12G20    30.33R WCI  12
BURLINGTON     CLEAR     27  22  80 W10G18    30.34S WCI  17
WAUKESHA       CLEAR     21  16  79 W15G22    30.33R WCI   8
WEST BEND      CLEAR     23  19  86 W9        30.30R WCI  13
$$

INZ001>003-010>013-019-020-090200-
NORTHWEST INDIANA

CITY           SKY/WX    TMP DP  RH WIND       PRES   REMARKS
GARY*          CLOUDY    25  16  68 W14G29    30.40R WCI  13
MICHIGAN CITY* NOT AVBL
RENSSELAER*    NOT AVBL
VALPARAISO     CLOUDY    22  15  75 MISG      30.38R
$$

LMZ740>746-090200-
SOUTHERN LAKE MICHIGAN

STATION/POSITION TIME  SKY/WX   TEMP WIND        PRES    VSBY
                                AIR  DIR/SP/G
                 (UTC)          (F)  (DEG/KT/KT) (MB)    (MI)
HARRISON CRIB    0040            25  290/ 19/ 23   N/A
BURNHAM HARBOR   0100            25  250/ 14/ 21   N/A
CALUMET HARBOR   0048            23  280/  9/ 14 1028.3R
BURNS HARBOR     0040            26  280/ 21/ 25 1028.8R
MICHIGAN CITY    NOT AVBL
$$

ABBREVIATIONS USED IN REMARKS
   TC - TEMPERATURE IN CELSIUS
  WCI - WIND CHILL INDEX
   HX - HEAT INDEX
  VSB - VISIBILITY
$$




USA.gov is the U.S. government's official web portal to all federal, state and local government web resources and services.